Weather History for Huntingburg, IN

Change the Weather History Date:

Wednesday, February 5, 2014

  Actual Average Record
Temperature  
Mean Temperature 26 °F -  
Max Temperature 30 °F 41 °F 66 °F (2008)
Min Temperature 21 °F 27 °F 3 °F (2007)
Degree Days  
Heating Degree Days 40    
Moisture  
Dew Point 22 °F    
Average Humidity 83    
Maximum Humidity 93    
Minimum Humidity 74    
Precipitation  
Precipitation 0.25 in - - ()
Sea Level Pressure  
Sea Level Pressure 30.12 in    
Wind  
Wind Speed 0 mph (North)    
Max Wind Speed 0 mph    
Max Gust Speed -    
Visibility 7 miles    
Events      
Averages and records for this station are not official NWS values.
T = Trace of Precipitation, MM = Missing Value Source: NWS Daily Summary

Daily Weather History Graph

Daily Weather History Graph

Search for Another Location

Airport:

Trip Planner

Search our weather history database for the weather conditions in past years. The results will help you decide how hot, cold, wet, or windy it might be!

Date:

Astronomy

Feb. 05, 2014 Rise Set
Actual Time 7:49 AM EST 6:15 PM EST
Civil Twilight 7:21 AM EST 6:42 PM EST
Nautical Twilight 6:50 AM EST 7:14 PM EST
Astronomical Twilight 6:19 AM EST 7:45 PM EST
Moon 11:09 AM EST (2/5) 12:01 AM EST (2/5)
Length of Visible Light 11h 21m
Length of Day
10h 26m
Waxing Crescent, 39% of the Moon is Illuminated
Feb 5
Waxing Crescent
Feb 6
First Quarter
Feb 14
Full
Feb 22
Last Quarter
Mar 1
New

Hourly Weather History & Observations

Time (EST) Temp. Dew Point Humidity Pressure Visibility Wind Dir Wind Speed Gust Speed Precip Events Conditions
12:15 AM 30.2 °F 28.4 °F 93% 29.84 in 1.8 mi Calm Calm - N/A   Overcast
12:35 AM 30.2 °F 28.4 °F 93% 29.82 in 1.8 mi Calm Calm - N/A   Overcast
12:55 AM 30.2 °F 28.4 °F 93% 29.82 in 1.8 mi Calm Calm - N/A   Overcast
1:15 AM 30.2 °F 28.4 °F 93% 29.80 in 2.5 mi Calm Calm - N/A   Mostly Cloudy
1:35 AM 30.2 °F 28.4 °F 93% 29.80 in 1.8 mi Calm Calm - N/A   Overcast
1:55 AM 30.2 °F 28.4 °F 93% 29.80 in 2.0 mi Calm Calm - N/A   Overcast
2:15 AM 30.2 °F 28.4 °F 93% 29.80 in 2.0 mi Calm Calm - N/A   Overcast
2:35 AM 30.2 °F 28.4 °F 93% 29.80 in 1.2 mi Calm Calm - N/A   Overcast
2:55 AM 30.2 °F 28.4 °F 93% 29.79 in 1.2 mi Calm Calm - N/A   Overcast
3:15 AM 30.2 °F 28.4 °F 93% 29.78 in 1.8 mi Calm Calm - N/A   Overcast
3:35 AM 30.2 °F 28.4 °F 93% 29.79 in 1.8 mi Calm Calm - N/A   Mostly Cloudy
3:55 AM 30.2 °F 28.4 °F 93% 29.81 in 2.0 mi Calm Calm - N/A   Mostly Cloudy
4:15 AM 30.2 °F 28.4 °F 93% 29.82 in 2.0 mi Calm Calm - N/A   Mostly Cloudy
4:35 AM 30.2 °F 28.4 °F 93% 29.83 in 1.8 mi Calm Calm - N/A   Overcast
4:55 AM 30.2 °F 28.4 °F 93% 29.84 in 1.5 mi Calm Calm - N/A   Overcast
5:15 AM 30.2 °F 28.4 °F 93% 29.85 in 1.8 mi Calm Calm - N/A   Overcast
5:35 AM 30.2 °F 26.6 °F 86% 29.86 in 4.0 mi Calm Calm - N/A   Overcast
5:55 AM 30.2 °F 26.6 °F 86% 29.87 in 8.0 mi Calm Calm - N/A   Overcast
6:15 AM 28.4 °F 26.6 °F 93% 29.89 in 9.0 mi Calm Calm - N/A   Overcast
6:35 AM 28.4 °F 24.8 °F 86% 29.90 in 4.0 mi Calm Calm - N/A   Overcast
6:55 AM 26.6 °F 24.8 °F 93% 29.92 in 5.0 mi Calm Calm - N/A   Overcast
7:15 AM 26.6 °F 24.8 °F 93% 29.93 in 4.0 mi Calm Calm - N/A   Overcast
7:35 AM 26.6 °F 21.2 °F 80% 29.95 in 5.0 mi Calm Calm - N/A   Overcast
7:55 AM 24.8 °F 21.2 °F 86% 29.97 in 5.0 mi Calm Calm - N/A   Overcast
8:15 AM 24.8 °F 21.2 °F 86% 29.99 in 3.0 mi Calm Calm - N/A   Overcast
8:35 AM 24.8 °F 19.4 °F 80% 30.01 in 3.0 mi Calm Calm - N/A   Overcast
8:55 AM 24.8 °F 21.2 °F 86% 30.03 in 3.0 mi Calm Calm - N/A   Overcast
9:15 AM 24.8 °F 19.4 °F 80% 30.05 in 5.0 mi Calm Calm - N/A   Overcast
9:35 AM 23.0 °F 19.4 °F 86% 30.07 in 4.0 mi Calm Calm - N/A   Overcast
9:55 AM 23.0 °F 19.4 °F 86% 30.08 in 4.0 mi Calm Calm - N/A   Overcast
10:15 AM 24.8 °F 19.4 °F 80% 30.09 in 7.0 mi Calm Calm - N/A   Overcast
10:35 AM 24.8 °F 19.4 °F 80% 30.11 in 10.0 mi Calm Calm - N/A   Overcast
10:55 AM 24.8 °F 19.4 °F 80% 30.12 in 10.0 mi Calm Calm - N/A   Overcast
11:15 AM 24.8 °F 19.4 °F 80% 30.14 in 10.0 mi Calm Calm - N/A   Overcast
11:35 AM 24.8 °F 19.4 °F 80% 30.15 in 10.0 mi Calm Calm - N/A   Overcast
11:55 AM 24.8 °F 19.4 °F 80% 30.16 in 10.0 mi Calm Calm - N/A   Unknown
12:15 PM 24.8 °F 19.4 °F 80% 30.16 in 10.0 mi Calm Calm - N/A   Mostly Cloudy
12:35 PM 24.8 °F 19.4 °F 80% 30.16 in 5.0 mi Calm Calm - N/A   Overcast
12:55 PM 24.8 °F 19.4 °F 80% 30.16 in 9.0 mi Calm Calm - N/A   Overcast
1:15 PM 26.6 °F 19.4 °F 74% 30.16 in 10.0 mi Calm Calm - N/A   Mostly Cloudy
1:35 PM 26.6 °F 19.4 °F 74% 30.17 in 10.0 mi Calm Calm - N/A   Mostly Cloudy
1:55 PM 26.6 °F 19.4 °F 74% 30.17 in 10.0 mi Calm Calm - N/A   Mostly Cloudy
2:15 PM 26.6 °F 19.4 °F 74% 30.18 in 10.0 mi Calm Calm - N/A   Mostly Cloudy
2:35 PM 26.6 °F 19.4 °F 74% 30.20 in 10.0 mi Calm Calm - N/A   Overcast
2:55 PM 26.6 °F 21.2 °F 80% 30.21 in 10.0 mi Calm Calm - N/A   Overcast
3:15 PM 26.6 °F 19.4 °F 74% 30.22 in 10.0 mi Calm Calm - N/A   Overcast
3:35 PM 26.6 °F 21.2 °F 80% 30.23 in 4.0 mi Calm Calm - N/A   Overcast
3:55 PM 26.6 °F 21.2 °F 80% 30.24 in 10.0 mi Calm Calm - N/A   Overcast
4:15 PM 26.6 °F 19.4 °F 74% 30.25 in 10.0 mi Calm Calm - N/A   Overcast
4:35 PM 26.6 °F 21.2 °F 80% 30.26 in 10.0 mi Calm Calm - N/A   Overcast
4:55 PM 26.6 °F 19.4 °F 74% 30.28 in 10.0 mi Calm Calm - N/A   Overcast
5:15 PM 26.6 °F 19.4 °F 74% 30.29 in 10.0 mi Calm Calm - N/A   Overcast
5:35 PM 26.6 °F 19.4 °F 74% 30.30 in 10.0 mi Calm Calm - N/A   Mostly Cloudy
5:55 PM 26.6 °F 21.2 °F 80% 30.31 in 4.0 mi Calm Calm - N/A   Overcast
6:15 PM 26.6 °F 21.2 °F 80% 30.33 in 4.0 mi Calm Calm - N/A   Overcast
6:35 PM 26.6 °F 21.2 °F 80% 30.34 in 5.0 mi Calm Calm - N/A   Scattered Clouds
6:55 PM 26.6 °F 21.2 °F 80% 30.36 in 7.0 mi Calm Calm - N/A   Mostly Cloudy
7:15 PM 26.6 °F 21.2 °F 80% 30.37 in 5.0 mi Calm Calm - N/A   Overcast
7:35 PM 26.6 °F 21.2 °F 80% 30.37 in 7.0 mi Calm Calm - N/A   Overcast
7:55 PM 26.6 °F 21.2 °F 80% 30.38 in 10.0 mi Calm Calm - N/A   Overcast
8:15 PM 24.8 °F 19.4 °F 80% 30.38 in 10.0 mi Calm Calm - N/A   Overcast
8:35 PM 24.8 °F 19.4 °F 80% 30.39 in 10.0 mi Calm Calm - N/A   Overcast
8:55 PM 24.8 °F 19.4 °F 80% 30.41 in 10.0 mi Calm Calm - N/A   Overcast
9:15 PM 24.8 °F 19.4 °F 80% 30.41 in 10.0 mi Calm Calm - N/A   Overcast
9:35 PM 24.8 °F 19.4 °F 80% 30.42 in 10.0 mi Calm Calm - N/A   Overcast
9:55 PM 24.8 °F 17.6 °F 74% 30.43 in 10.0 mi Calm Calm - N/A   Overcast
10:15 PM 24.8 °F 17.6 °F 74% 30.44 in 10.0 mi Calm Calm - N/A   Overcast
10:35 PM 23.0 °F 17.6 °F 80% 30.44 in 10.0 mi Calm Calm - N/A   Mostly Cloudy
10:55 PM 23.0 °F 17.6 °F 80% 30.45 in 10.0 mi Calm Calm - N/A   Overcast
11:15 PM 21.2 °F 17.6 °F 86% 30.45 in 10.0 mi Calm Calm - N/A   Overcast
11:35 PM 21.2 °F 15.8 °F 80% 30.46 in 10.0 mi Calm Calm - N/A   Overcast
11:55 PM 21.2 °F 15.8 °F 80% 30.46 in 10.0 mi Calm Calm - N/A   Mostly Cloudy